Weather in Nyzy

Ukraine / Sumi District     50°46′50″N   34°46′41″E
temp.,
°C
wind,
m/s
gust,
m/s
humid.,
%
clouds,
%
prec.,
mm/h
press.,
hPa
HPBL,
m
20 june, sun
sun2000:00+19e4118614 0.0 1021273
03:00+17e4119018 0.0 1021236
06:00+17e513835 0.0 1020324
09:00+21e6116995 0.0 1020477
12:00+24e7960100 0.0 1019779
15:00+25e6966100 0.0 1018922
18:00+23e51073100 0.0 1018729
21:00+20ene5127998 0.0 1018391
21 june, mon
mon2100:00+18ene4118734 0.0 1017229
03:00+17ene4108711 0.0 1016194
06:00+17e511835 0.0 1016252
09:00+22ese5106941 0.0 1016426
12:00+26ese6105734 0.0 1016766
15:00+28e6106164 0.0 10151118
18:00+26ese611690 0.0 1015778
21:00+22e513830 0.0 1016311
22 june, tue
tue2200:00+20e4118619 0.0 1016202
03:00+18e411780 0.0 1015220
06:00+18e4128149 0.0 1016246
09:00+24ese5136887 0.0 1016401
12:00+27ese611546 0.0 1016884
15:00+29ese6958100 0.0 1016979
18:00+27e5107098 0.0 1016563
21:00+23ene47875 0.0 1017125
23 june, wed
wed2300:00+21e41289100 0.0 1016230
03:00+20ene412867 0.0 1016231
06:00+20ene4148048 0.0 1016293
09:00+25e61070100 0.0 1016416
12:00+28e6105873 0.0 1016627
15:00+29ese6960100 0.0 1017945
18:00+28ese476895 0.0 1017362
21:00+23e368898 0.0 1018108
24 june, thu
thu2400:00+21e358978 0.0 101872
03:00+20e239151 0.0 101838
06:00+22e3784100 0.0 1019141
09:00+26e476561 0.0 1018311
12:00+29ese575355 0.0 1019786
15:00+30ese565170 0.0 10181023
18:00+30e366379 0.0 1018367
21:00+24e467998 0.0 101888